NOAA 16 DEB, 42402

Orbit data source: Space-Track

NOAA 16 DEB, 42402 is space debris in SSO originally from a launch on Thu, 21 Sep 2000 UTC launched from the Air Force Western Test Range (AFWTR). Debris objects in space refer to the collection of defunct objects orbiting the Earth. Examples of debris include non-operational satellites, rocket bodies, and fragments generated from explosions, collisions, or faulty payload assembly.

Loading next visibility...
Identifier
42402, 2000-055SW
Orbit
SSO
Country
Flag of USUS
Related business
Manufacturer
Unknown
Mission
Spacecraft
Bus & Motor
Unknown
Mass
Unknown
Launch date (UTC)
2000-09-21 (26 years ago)
Launch vehicle
Unknown
Launch site
Air Force Western Test Range (AFWTR)
Object type
Payload
Rocket body
Debris
Shape & HBR
Unknown shape, 0.1 m
Radar Cross Section
Medium (>0.1 m² and <1 m²)

Expand to show TLE details & history
Last TLE update: 1 day ago

TLE from 1 day ago
0 NOAA 16 DEB
1 42402U 00055SW  26253.46978034  .00002537  00000-0  72982-3 0  9999
2 42402  99.0202 121.4018 0027007 236.9013 122.9583 14.45534935548687
Epoch: 2026-09-10T11:16Z
TLE epoch observation values (Epoch: 2026-09-10T11:16:29.021Z)
Latitude
-0.00007°
Longitude
-37.22614°
Altitude
753.706 km
Speed
7.472 km/s
True Right ascension
08h 05m 36s
True Declination
0° 00' 00"
Sunlit
Object was in daylight at epoch
Visualization orbit readout
Latitude
Unknown
Longitude
Unknown
Altitude
Unknown
Speed
Unknown
Apparent Right ascension
Unknown
Apparent Declination
Unknown
Sunlit
N/A
Visualization observer readout
Local Sidereal Time
11:26:48
Azimuth
Unknown
Elevation
Unknown
Doppler factor
Unknown
Orbital elements
Apogee altitude
756.626 km
Perigee altitude
718.192 km
Semi-major axis
7,115.546 km
Eccentricity
0.0027
Inclination
99.0202°
RAAN
121.4018°
Arg. of periapsis
236.9013°
True anomaly
123.2175°
Mean anomaly
122.9583°
Eccentric anomaly
123.08795°
Mean motion
3.61602 °/min
Orbital period
99.56 mins
BSTAR
0.00072982
Loading maneuver chart data...
Computing Atmospheric mass density...
Loading historical data...
Loading historical data...
Loading historical data...
Loading historical data...
Loading historical data...
Loading historical data...
Loading historical data...

Documentation

Showing up to 5 results
|